Location: Azul
(36.7830°S, 59.8500°W)
Time: 20:09:37
(UTC-03:00)

ISS - Pass Details

Date: 19 April 2018
Orbit: 402 x 407 km, 51.6° (Epoch: 27 April)

Event Time Altitude Azimuth Distance (km) Brightness Sun altitude
Exits shadow 05:32:33 32° 52° (NE) 723 -2.2 -23.9°
Drops below altitude 10° 05:34:27 10° 50° (NE) 1,465 -0.4 -23.5°
Sets 05:36:31 0° 49° (NE) 2,318 0.7 -23.1°
